Simultaneous Nadir Overpasses (SNOs) Predictions

Prediction of SNOs between AURA and LANDSAT-8 Satellite Orbit:

Table of predicted SNOs for the next 14.0 days since TLE Epoch: 10/3/2025
Index Date (AURA) Time (AURA) Lat,Lon (AURA) SZA (AURA ) Date (LANDSAT-8) Time (LANDSAT-8) Lat,Lon (LANDSAT-8) SZA (LANDSAT-8 ) Distance(km) Time Diff (sec)
1 10/16/2025 03:09:59 73.40, 137.59 82.44 10/16/2025 03:08:54 73.41, 134.73 82.34 90.60 65
2 10/16/2025 03:59:25 -73.79, -55.58 97.20 10/16/2025 03:58:15 -73.77, -56.86 97.27 39.89 70
3 10/16/2025 04:48:48 73.96, 111.69 82.98 10/16/2025 04:47:37 73.93, 111.14 82.92 17.18 71
4 10/16/2025 05:38:09 -74.09, -80.92 96.90 10/16/2025 05:37:02 -74.08, -80.89 96.91 1.07 67
5 10/16/2025 06:27:29 74.11, 86.70 83.14 10/16/2025 06:26:27 74.09, 86.78 83.11 2.87 62
6 10/16/2025 07:16:47 -74.07,-105.55 96.89 10/16/2025 07:15:55 -74.08,-105.61 96.89 1.94 52
7 10/16/2025 08:06:07 74.09, 62.07 83.15 10/16/2025 08:05:20 74.09, 62.06 83.14 0.59 47
8 10/16/2025 08:55:26 -74.11,-130.30 96.82 10/16/2025 08:54:47 -74.13,-130.21 96.81 3.59 39
9 10/16/2025 09:44:45 74.08, 37.44 83.17 10/16/2025 09:44:13 74.09, 37.34 83.17 3.22 32
10 10/16/2025 10:34:04 -74.10,-154.93 96.81 10/16/2025 10:33:40 -74.13,-154.93 96.78 3.56 24
11 10/16/2025 11:23:24 74.12, 12.69 83.23 10/16/2025 11:23:05 74.14, 12.74 83.25 2.75 19
12 10/16/2025 12:12:43 -74.14,-179.68 96.75 10/16/2025 12:12:33 -74.14,-179.64 96.75 1.43 10
13 10/16/2025 13:02:03 74.16, -12.06 83.29 10/16/2025 13:01:58 74.14, -11.98 83.27 3.34 5
14 10/16/2025 13:51:21 -74.13, 155.69 96.73 10/16/2025 13:51:26 -74.14, 155.64 96.73 1.57 5
15 10/16/2025 14:40:41 74.15, -36.70 83.31 10/16/2025 14:40:51 74.14, -36.70 83.30 0.84 10
16 10/16/2025 15:30:00 -74.17, 130.93 96.67 10/16/2025 15:30:18 -74.19, 131.04 96.65 3.63 18
17 10/16/2025 16:19:19 74.14, -61.33 83.32 10/16/2025 16:19:44 74.15, -61.42 83.33 2.78 25
18 10/16/2025 17:08:37 -74.16, 106.30 96.65 10/16/2025 17:09:10 -74.19, 106.32 96.62 3.17 33
19 10/16/2025 17:57:57 74.18, -86.08 83.38 10/16/2025 17:58:35 74.20, -86.02 83.41 2.60 38
20 10/16/2025 18:47:16 -74.20, 81.55 96.59 10/16/2025 18:48:03 -74.19, 81.60 96.59 1.99 47
21 10/16/2025 19:36:35 74.17,-110.71 83.40 10/16/2025 19:37:28 74.20,-110.74 83.43 3.10 53
22 10/16/2025 20:25:54 -74.19, 56.92 96.58 10/16/2025 20:26:56 -74.19, 56.88 96.57 1.12 62
23 10/16/2025 21:15:14 74.21,-135.47 83.46 10/16/2025 21:16:21 74.20,-135.46 83.46 1.49 67
24 10/16/2025 22:04:36 -74.38, 31.79 96.37 10/16/2025 22:05:47 -74.29, 32.40 96.43 20.82 71
25 10/16/2025 22:53:59 74.56,-160.97 83.81 10/16/2025 22:55:07 74.56,-159.32 83.87 48.98 68
26 10/16/2025 23:43:25 -74.93, 5.75 95.84 10/16/2025 23:44:29 -74.85, 9.06 95.80 96.16 64



Historial Predications of SNOs between AURA and LANDSAT-8
